This is the latest recevied weather packets stored in our database for station/object EA1CUE-WX. If no packets are shown the sender has not sent any weather packets the latest 10 day(s).
| Time | Temp. | Humidity | Pressure | Rain* | Wind** | Luminosity | Snow |
|---|---|---|---|---|---|---|---|
| 1777715925 | 15° C | 17% | 1014.2 hPa | 0 mm | - | - | - |
| 1777715625 | 15° C | 17% | 1014.3 hPa | 0 mm | - | - | - |
| 1777715325 | 15° C | 5% | 1014.2 hPa | 0 mm | - | - | - |
| 1777715025 | 14.44° C | 6% | 1014.2 hPa | 0 mm | - | - | - |
| 1777714725 | 14.44° C | 1% | 1014.2 hPa | 0 mm | - | - | - |
| 1777714425 | 14.44° C | 1% | 1014.3 hPa | 0 mm | - | - | - |
| 1777714125 | 14.44° C | 1% | 1014.3 hPa | 0 mm | - | - | - |
| 1777713825 | 13.89° C | 1% | 1014.4 hPa | 0 mm | - | - | - |
| 1777713525 | 14.44° C | 1% | 1014.4 hPa | 0 mm | - | - | - |
| 1777713225 | 14.44° C | 1% | 1014.4 hPa | 0 mm | - | - | - |
| 1777712925 | 15° C | 1% | 1014.4 hPa | 0 mm | - | - | - |
| 1777712625 | 15.56° C | 7% | 1014.4 hPa | 0 mm | - | - | - |
| 1777712325 | 15.56° C | 25% | 1014.4 hPa | 0 mm | - | - | - |
| 1777712025 | 15.56° C | 37% | 1014.5 hPa | 0 mm | - | - | - |
| 1777711725 | 16.11° C | 30% | 1014.5 hPa | 0 mm | - | - | - |
| 1777711425 | 16.67° C | 30% | 1014.5 hPa | 0 mm | - | - | - |
| 1777711125 | 16.11° C | 19% | 1014.4 hPa | 0 mm | - | - | - |
| 1777710825 | 15.56° C | 7% | 1014.5 hPa | 0 mm | - | - | - |
| 1777710525 | 15° C | 1% | 1014.6 hPa | 0 mm | - | - | - |
| 1777710225 | 15° C | 1% | 1014.7 hPa | 0 mm | - | - | - |
| 1777709925 | 15° C | 1% | 1014.7 hPa | 0 mm | - | - | - |
| 1777709625 | 15° C | 1% | 1014.6 hPa | 0 mm | - | - | - |
| 1777709325 | 15° C | 1% | 1014.5 hPa | 0 mm | - | - | - |
| 1777709025 | 15° C | 1% | 1014.5 hPa | 0 mm | - | - | - |
| 1777708725 | 15° C | 1% | 1014.4 hPa | 0 mm | - | - | - |
* Rain latest hour (hover to see other rain measurements)
** Current wind speed in m/s (hover to see current wind gust speed)